sat.trackr.live / text

‹ back to catalog

STARLINK-2250

NORAD 48593 · 2021-041AS

PAYLOAD ACTIVE UNKNOWN

§ Identity

Operator
Country
US
Launch date
2021-05-15
Launch site
AFETR
Launch vehicle
Mass (kg)
RCS (m²)

Purposes: comms

External: N2YO · Heavens-Above · Gunter

§ Orbital elements

Epoch: 2026-09-19T18:20:32.861472Z

Period
94.01 min
Inclination
53.1609°
Eccentricity
0.0001243
Mean motion
15.31700251 rev/d
Perigee alt
469.9 km
Apogee alt
471.6 km
Semi-major
6,848.9 km
B*
-1.7322e-5
RAAN
316.7218°
Arg perigee
105.8196°
Mean anomaly
254.2943°
Rev number
29,482

§ Raw data

STARLINK-22501 48593U 21041AS  26262.76426923 -.00000903  00000+0 -17322-4 0  99962 48593  53.1609 316.7218 0001243 105.8196 254.2943 15.31700251294822

JSON: /api/v1/satellites/48593 · /tle

For live sub-satellite position, see the globe view (requires WebGL).

§ Visibility from observer

Set your observer location to see the next 7 days of passes ≥ 10°. The values pass through the URL so the page stays shareable.

No JS? Fill the form by hand. The geolocation button needs JavaScript.